Tracking 33198 objects as of 13-Feb-2026
HD Live streaming from Space Station
objects crossing your sky now

STARLINK-1506

Track STARLINK-1506 now!
10-day predictions
STARLINK-1506 is classified as:


NORAD ID: 45747
Int'l Code: 2020-038T
Perigee: 493.3 km
Apogee: 499.8 km
Inclination: 53.1 °
Period: 94.4 minutes
Semi major axis: 6867 km
RCS: Unknown
Launch date: June 13, 2020
Source: United States (US)
Launch site: AIR FORCE EASTERN TEST RANGE (AFETR)
Your satellite tracking list
Your tracking list is empty




NASA's NSSDC Master Catalog

Two Line Element Set (TLE):
1 45747U 20038T   26044.16120866  .00009749  00000-0  39319-3 0  9993
2 45747  53.0766 315.7440 0004734 149.9225 210.2045 15.25453821312949
Source of the keplerian elements: AFSPC